Dewpoint
27 25 27 30 35 40 42 45 37 45 52 50 49 50 55 57 57 58 57 52 52 55 57 58 58 59 60 63 65 67 66 70 67 66 66 69 66 66 62 63 70 70 70 71
20 20 23 28 31 36 38 40 36 41 49 50 49 50 54 56 56 56 57 55 53 53 58 58 58 60 60 64 65 68 69 71 69 66 68 69 67 63 65 66 70 70 70 71
17 15 19 22 26 32 33 33 33 33 42 47 46 48 50 57 56 56 56 56 55 56 58 57 60 60 61 65 66 68 70 71 71 71 67 68 67 69 63 65 66 69 70 70
14 13 16 19 20 24 26 28 32 31 37 46 48 48 50 51 54 56 55 55 55 55 58 60 58 58 60 64 65 68 70 71 71 72 71 73 66 63 61 66 65 68 70 69
13 11 12 13 13 21 24 32 28 28 33 43 44 45 51 51 51 53 53 53 54 56 56 55 58 60 59 62 65 67 71 73 73 73 74 68 70 64 71 61 73 73 74 71
12 14 8 8 8 13 21 28 31 31 30 33 32 32 44 43 45 50 53 52 53 57 57 59 58 59 62 63 63 66 71 73 73 72 71 73 73 71 72 67 66 64 66 68
15 17 16 15 11 8 18 24 26 25 24 28 37 34 37 42 40 44 48 52 54 55 57 58 59 59 60 62 63 64 69 71 71 70 71 71 71 72 71 70 66 67 61 62
16 13 16 15 13 12 17 22 21 32 30 33 36 31 33 38 39 44 49 53 57 58 57 57 58 60 61 62 63 64 68 71 71 70 72 74 73 68 68 69 69 64 62 62
15 16 15 14 16 22 16 22 21 28 31 30 36 32 38 39 37 45 48 52 53 55 57 58 59 60 62 62 64 66 68 70 70 69 71 72 72 71 68 72 71 68 71 67
22 21 17 14 15 18 25 23 19 23 31 30 27 28 31 38 38 40 45 48 50 53 57 58 60 60 62 61 63 65 67 69 69 69 69 68 69 70 71 73 72 72 73 72
20 22 25 21 19 18 20 21 23 21 21 22 23 27 33 35 41 41 44 46 49 52 55 57 60 61 62 62 64 64 67 69 69 68 70 69 68 68 70 69 69 71 71 72
22 19 25 23 21 21 26 21 19 19 26 23 22 30 36 36 38 40 48 49 51 53 55 58 59 62 64 64 65 66 65 65 67 70 71 70 70 69 67 69 69 73 74 71
23 21 22 26 25 25 22 23 24 23 23 35 29 34 43 46 47 48 50 52 54 55 56 59 61 62 64 64 66 68 69 67 67 69 69 69 69 69 67 69 69 72 74 73
36 24 24 23 32 33 26 22 23 21 21 23 26 37 42 44 46 48 50 53 55 55 58 61 63 65 66 67 69 71 69 68 69 71 69 68 69 70 69 69 71 70 74 73
26 28 28 24 28 29 26 23 23 26 26 26 29 31 41 44 44 46 49 53 54 56 57 60 62 65 67 69 69 70 72 72 71 71 73 73 72 72 73 73 74 72 73 73
27 30 30 28 25 27 24 23 25 26 28 28 27 30 33 42 43 46 49 53 54 55 55 59 62 63 67 68 68 69 70 72 72 72 71 73 73 74 73 74 75 76 75 75
33 30 31 29 32 27 23 24 25 25 27 28 29 34 37 44 43 46 50 53 54 55 57 58 60 63 67 67 68 68 70 71 72 72 72 73 74 73 73 73 74 75 75 75
37 37 33 28 30 26 29 26 27 26 26 29 32 40 43 44 45 48 50 51 54 56 58 59 60 62 65 65 67 67 68 69 69 69 69 71 71 72 72 72 72 74 75 75
32 34 32 32 27 33 33 30 30 28 27 30 32 35 42 45 46 50 51 53 56 58 60 60 62 63 64 63 66 67 67 67 66 65 67 70 69 69 69 70 71 73 74 74
29 33 31 33 31 32 38 28 29 29 29 32 33 34 45 48 45 42 55 56 58 62 62 65 64 63 64 65 66 64 65 66 66 67 67 68 69 69 69 70 71 72 72 71
31 33 30 32 33 34 32 28 31 30 30 34 33 36 46 47 52 57 56 58 61 63 63 64 64 65 66 65 65 66 66 67 68 68 69 69 68 69 68 70 71 70 69 68
36 33 30 32 33 32 31 32 34 33 39 36 37 40 47 51 57 57 58 59 61 62 62 62 62 62 62 64 64 65 65 66 67 68 68 69 70 69 69 69 69 68 68 67
37 39 31 34 33 46 43 38 37 34 39 39 41 45 49 56 56 56 58 58 58 56 55 54 56 58 60 62 64 63 66 66 67 67 67 65 65 66 66 66 66 65 65 64
39 41 37 37 38 39 37 36 35 38 37 41 42 47 51 53 55 56 56 55 55 56 56 55 55 56 59 61 62 65 66 66 67 65 65 63 62 62 64 64 65 64 64 63
47 48 42 40 43 40 40 38 42 42 44 42 46 50 53 54 55 55 55 56 56 57 57 57 57 57 59 61 64 64 65 66 64 64 64 63 62 60 57 56 55 60 55 54
44 47 42 39 49 49 46 44 45 47 46 46 50 52 53 54 54 56 56 57 57 58 59 59 58 58 58 62 63 64 65 65 62 61 60 61 61 61 59 58 57 47 47 45
Lifted_Index
5 4 2 -0 -1 -2 -2 -2 -2 -2 -2 -2 -2 -2 -2 -2 -2 -2 -2 -1 -1 -2 -2 -2 -2 -2 -2 -2 -3 -3 -3 -3 -3 -3 -4 -4 -4 -3 -3 -3 -5 -5 -5 -5
5 4 2 0 -0 -1 -2 -2 -1 -1 -2 -2 -2 -2 -3 -3 -2 -2 -2 -2 -2 -2 -2 -2 -2 -2 -2 -3 -3 -3 -3 -4 -3 -3 -4 -4 -4 -3 -3 -4 -5 -5 -5 -5
4 3 2 2 1 -0 -1 -1 -1 -1 -1 -2 -2 -2 -3 -3 -3 -3 -3 -3 -2 -2 -2 -2 -2 -3 -3 -3 -3 -3 -4 -4 -4 -3 -4 -4 -4 -3 -3 -4 -4 -5 -5 -5
4 3 3 3 3 1 -0 -1 -0 0 -1 -2 -2 -2 -2 -3 -3 -3 -3 -3 -3 -2 -2 -2 -3 -3 -3 -3 -4 -4 -4 -4 -4 -4 -4 -4 -4 -3 -3 -3 -4 -5 -5 -5
3 4 4 4 3 2 0 -0 -0 0 -0 -1 -1 -1 -1 -3 -3 -3 -3 -3 -3 -3 -3 -3 -3 -3 -3 -3 -4 -4 -4 -4 -4 -4 -4 -4 -4 -3 -3 -3 -4 -4 -5 -5
3 4 4 3 2 2 1 -0 -0 -0 -0 -1 -1 -1 -1 -2 -3 -3 -3 -4 -4 -3 -3 -3 -3 -3 -3 -3 -4 -4 -4 -5 -4 -4 -4 -4 -4 -4 -4 -3 -4 -4 -4 -4
2 2 3 3 2 1 1 -0 -1 -0 -1 -1 -1 -1 -1 -1 -2 -2 -3 -4 -4 -4 -4 -3 -3 -3 -3 -3 -3 -4 -4 -5 -4 -4 -4 -4 -4 -4 -4 -4 -4 -3 -3 -3
0 1 2 2 1 1 0 -0 -0 -0 -0 -1 -1 -1 -1 -1 -1 -2 -3 -4 -4 -4 -4 -4 -3 -3 -3 -3 -3 -4 -4 -5 -5 -4 -4 -4 -4 -4 -4 -4 -4 -3 -3 -3
-1 -0 0 1 1 0 -0 -0 -0 -0 -0 -1 -1 -1 -1 -1 -1 -2 -3 -3 -3 -4 -4 -4 -4 -4 -4 -4 -4 -4 -5 -5 -5 -4 -4 -4 -4 -4 -4 -4 -4 -4 -4 -3
-1 -0 -0 0 0 0 -0 -0 -0 -0 -0 -0 -1 -1 -1 -1 -1 -1 -2 -2 -2 -3 -4 -4 -4 -4 -4 -4 -4 -5 -5 -5 -5 -5 -4 -4 -4 -4 -4 -5 -5 -4 -4 -4
-0 -0 -0 -0 0 0 -0 -0 -0 -0 -0 -0 -1 -1 -1 -1 -1 -1 -1 -2 -2 -3 -3 -4 -5 -5 -5 -4 -5 -5 -5 -5 -5 -5 -5 -4 -4 -4 -4 -4 -5 -5 -5 -5
-0 -0 -0 -0 -0 -0 -0 -0 -0 -0 -0 -0 -1 -1 -1 -1 -2 -2 -2 -2 -2 -2 -3 -4 -4 -5 -5 -5 -5 -5 -5 -5 -5 -5 -5 -5 -4 -4 -4 -4 -4 -5 -5 -5
0 -0 -0 -0 -0 0 0 -0 -0 -0 -0 -0 -1 -1 -1 -2 -2 -2 -2 -2 -2 -2 -3 -3 -4 -5 -5 -5 -5 -5 -5 -5 -5 -5 -5 -5 -5 -4 -4 -4 -4 -5 -5 -5
0 -0 -0 -0 -0 0 0 -0 -0 -0 -0 -0 -1 -1 -2 -2 -1 -2 -2 -2 -2 -2 -3 -3 -4 -5 -5 -6 -6 -5 -5 -5 -5 -5 -5 -5 -5 -5 -4 -4 -4 -5 -5 -5
0 0 -0 -0 -0 -0 -0 -0 -0 -0 -0 -0 -0 -1 -1 -1 -1 -1 -1 -2 -2 -2 -3 -3 -4 -4 -5 -5 -5 -5 -5 -5 -5 -5 -5 -6 -6 -5 -5 -5 -5 -5 -5 -5
-0 -0 -0 -0 -0 -0 -0 -0 -0 -0 -0 -0 -1 -1 -1 -0 0 -0 -1 -1 -2 -2 -2 -3 -3 -4 -4 -4 -4 -5 -5 -5 -5 -5 -6 -6 -6 -6 -6 -6 -6 -6 -6 -6
-1 -1 -1 -0 -0 -0 -0 -0 -0 -0 -0 -1 -1 -1 -1 -0 0 -0 -1 -1 -1 -2 -2 -3 -3 -3 -3 -3 -3 -4 -4 -4 -4 -4 -5 -5 -5 -5 -6 -6 -6 -6 -6 -5
-1 -1 -1 -1 -1 -0 -0 -0 -0 -0 -0 -1 -1 -2 -1 -0 -0 -0 -1 -1 -2 -2 -2 -2 -2 -2 -2 -2 -2 -2 -3 -3 -3 -3 -3 -4 -5 -5 -5 -5 -5 -5 -5 -5
-1 -1 -1 -1 -1 -1 -1 -0 -0 0 0 -0 -1 -1 -1 -1 -0 -1 -1 -2 -2 -3 -3 -3 -3 -2 -2 -2 -2 -2 -2 -2 -2 -1 -2 -2 -3 -3 -3 -4 -4 -4 -4 -4
-1 -1 -1 -1 -1 -1 -1 -0 -0 0 0 -0 -0 -1 -1 -1 -1 -1 -2 -2 -3 -3 -3 -3 -3 -3 -3 -2 -2 -2 -2 -2 -2 -1 -1 -1 -2 -2 -2 -3 -3 -3 -3 -3
-1 -1 -1 -1 -1 -1 -1 -0 -0 -0 -0 -0 -0 -0 -1 -1 -2 -2 -2 -3 -3 -4 -4 -3 -3 -3 -3 -3 -3 -3 -3 -3 -3 -2 -2 -2 -2 -2 -2 -2 -2 -2 -2 -1
-1 -1 -1 -1 -1 -1 -1 -1 -1 -1 -1 -1 -0 -0 -1 -2 -3 -3 -3 -3 -3 -3 -3 -2 -2 -2 -2 -2 -2 -3 -3 -3 -3 -3 -3 -3 -2 -2 -2 -2 -2 -1 -1 -1
-1 -1 -1 -1 -1 -1 -1 -1 -1 -1 -1 -1 -0 -1 -2 -2 -3 -3 -3 -2 -2 -2 -1 -1 -0 -1 -1 -1 -2 -2 -3 -3 -3 -3 -3 -3 -3 -2 -2 -2 -2 -1 -1 -1
-2 -1 -1 -1 -1 -1 -1 -1 -1 -1 -1 -1 -1 -2 -2 -3 -3 -2 -2 -2 -1 -1 -0 0 1 0 -0 -1 -2 -2 -2 -2 -2 -2 -2 -2 -3 -3 -3 -3 -2 -2 -1 -1
-2 -1 -1 -2 -2 -2 -2 -2 -2 -2 -2 -2 -2 -3 -3 -3 -3 -2 -2 -2 -1 -1 -1 -0 0 0 -0 -1 -1 -2 -2 -2 -2 -2 -2 -2 -2 -2 -2 -2 -2 -2 -2 -1
-2 -2 -2 -2 -3 -3 -2 -2 -3 -3 -3 -2 -3 -3 -3 -3 -3 -2 -2 -1 -1 -1 -1 -1 -0 -0 -0 -1 -1 -2 -2 -2 -2 -2 -2 -1 -1 -1 -1 -1 -1 -1 -1 -1